Regional Weather Roundup
Issued by NWS

Home | Current Version | Previous Version | Graphics & Text | Print | Product List | Glossary On
Versions: 1 2 3 4 5 6 7 8 9 10 11 12 13 14 15 16 17 18 19 20 21 22 23 24 25 26 27 28 29 30 31 32 33 34 35 36 37 38 39 40 41 42 43 44 45 46 47 48 49 50
000
ASUS43 KLSX 011859
RWRMO

WEATHER SUMMARY FOR MISSOURI
NATIONAL WEATHER SERVICE SPRINGFIELD MO
200 PM CDT WED OCT 01 2014

NOTE: "FAIR" INDICATES FEW OR NO CLOUDS BELOW 12,000 FEET WITH NO
       SIGNIFICANT WEATHER AND/OR OBSTRUCTIONS TO VISIBILITY.
       CURRENT SKY AND/OR WEATHER CONDITIONS ARE NOT AVAILABLE FOR
       CHILLICOTHE AND FARMINGTON.

MOZ001>031-035>038-043-044-053-054-012000-
...NORTHERN AND WESTERN MISSOURI...

CITY           SKY/WX    TMP DP  RH WIND       PRES   REMARKS
KANSAS CTY INT PTSUNNY   74  69  85 SE7       29.75F
KANSAS C DTWN  PTSUNNY   76  69  79 E7        29.74F
LEE`S SUMMIT   CLOUDY    71  68  90 VRB3      29.77F THUNDER
ST JOSEPH      PTSUNNY   74  67  78 SE6       29.74F
CHILLICOTHE      N/A     69  65  86 SE9       29.79F
KIRKSVILLE     LGT RAIN  65  64  97 E7        29.83F FOG

$$
MOZ066>068-077>081-088>096-101>105-012000-
...SOUTHWEST MISSOURI...

CITY           SKY/WX    TMP DP  RH WIND       PRES   REMARKS
SPRINGFIELD    MOSUNNY   84  65  52 S12       29.81F
JOPLIN         MOSUNNY   84  67  56 S16G26    29.77F

$$
MOZ032>034-039>042-045>050-055>058-069>072-012000-
...CENTRAL MISSOURI...

CITY           SKY/WX    TMP DP  RH WIND       PRES   REMARKS
COLUMBIA       PTSUNNY   78  63  59 E10       29.80F
JEFFERSON CITY MOSUNNY   86  63  45 SW14      29.78F
ROLLA          MOSUNNY   85  61  44 SW14      29.81F
SEDALIA        MOSUNNY   79  66  64 E7        29.77F
WHITEMAN AFB   CLOUDY    73  68  83 NE12      29.74F
OSAGE BEACH    PTSUNNY   88  64  45 S13       29.79F

$$
MOZ051-052-059>065-012000-
...EAST CENTRAL MISSOURI...

CITY           SKY/WX    TMP DP  RH WIND       PRES   REMARKS
ST LOUIS INTL  MOSUNNY   85  62  46 S10       29.85F
SPIRIT OF STL  SUNNY     85  63  47 SE7       29.81F
ST CHARLES     MOSUNNY   85  62  46 S16G23    29.83F

$$
MOZ072>076-082>087-097>100-106>115-012000-
...SOUTH CENTRAL AND SOUTHEAST MISSOURI...

CITY           SKY/WX    TMP DP  RH WIND       PRES   REMARKS
CAPE GIRARDEAU MOSUNNY   85  63  47 SW8G21    29.88F
FARMINGTON     MOSUNNY   84  63  48 SW13      29.89F
POPLAR BLUFF   CLOUDY    84  64  50 W6        29.86F
WEST PLAINS    MOSUNNY   83  65  54 S12       29.88F

$$



USA.gov is the U.S. government's official web portal to all federal, state and local government web resources and services.